Haleyville, AL

12:33 AM CST on January 19, 2017 (GMT -0600)
Haleyville

Weather History for K1M4 - September, 2013

Change the Weather History Date:

Thursday, September 12, 2013

  Actual Average (KJFX) Record (KJFX)
Temperature  
Mean Temperature 76 °F -  
Max Temperature 90 °F 85 °F 96 °F (2013)
Min Temperature 63 °F 60 °F 46 °F (1968)
Cooling Degree Days 12    
Growing Degree Days 26 (Base 50)    
Moisture  
Dew Point 68 °F    
Average Humidity 85    
Maximum Humidity 100    
Minimum Humidity 42    
Precipitation  
Precipitation 0.09 in - - ()
Sea Level Pressure  
Sea Level Pressure 30.10 in    
Wind  
Wind Speed 1 mph (WNW)    
Max Wind Speed 8 mph    
Max Gust Speed -    
Visibility 6 miles    
Events Rain    
Averages and records for this station are not official NWS values.
T = Trace of Precipitation, MM = Missing Value Source: NWS Daily Summary

Daily Weather History Graph

Daily Weather History Graph

Search for Another Location

Airport or City:

Trip Planner

Search our weather history database for the weather conditions in past years. The results will help you decide how hot, cold, wet, or windy it might be!

Date:

Astronomy

Sep. 12, 2013 Rise Set
Actual Time 6:31 AM CDT 7:00 PM CDT
Civil Twilight 6:06 AM CDT 7:26 PM CDT
Nautical Twilight 5:36 AM CDT 7:55 PM CDT
Astronomical Twilight 5:06 AM CDT 8:25 PM CDT
Moon 1:41 PM CDT (9/12) No Moon Set
Length of Visible Light 13h 19m
Length of Day
12h 29m
Waxing Crescent, 50% of the Moon is Illuminated
Sep 12
Waxing Crescent
Sep 12
First Quarter
Sep 19
Full
Sep 26
Last Quarter
Oct 4
New

Hourly Weather History & Observations

Time (CDT) Temp. Heat Index Dew Point Humidity Pressure Visibility Wind Dir Wind Speed Gust Speed Precip Events Conditions
12:56 AM 68.0 °F - 68.0 °F 100% 30.17 in 3.0 mi Calm Calm - N/A   Clear
1:23 AM 68.0 °F - 68.0 °F 100% 30.13 in 2.5 mi Calm Calm - N/A   Clear
1:30 AM 68.0 °F - 68.0 °F 100% 30.13 in 4.0 mi Calm Calm - N/A   Clear
1:56 AM 66.9 °F - 66.9 °F 100% 30.17 in 2.5 mi Calm Calm - N/A   Clear
2:06 AM 66.2 °F - 66.2 °F 100% 30.14 in 3.0 mi Calm Calm - N/A   Clear
2:24 AM 66.2 °F - 66.2 °F 100% 30.13 in 2.5 mi Calm Calm - N/A   Clear
2:44 AM 66.2 °F - 66.2 °F 100% 30.13 in 4.0 mi Calm Calm - N/A   Clear
2:56 AM 66.9 °F - 66.9 °F 100% 30.16 in 3.0 mi Calm Calm - N/A   Clear
3:56 AM 65.8 °F - 65.8 °F 100% 30.16 in 2.5 mi Calm Calm - N/A   Clear
4:39 AM 64.4 °F - 64.4 °F 100% 30.13 in 3.0 mi Calm Calm - N/A   Clear
4:56 AM 64.9 °F - 64.9 °F 100% 30.17 in 3.0 mi Calm Calm - N/A   Clear
5:56 AM 63.9 °F - 63.9 °F 100% 30.17 in 2.5 mi Calm Calm - N/A   Clear
6:03 AM 64.4 °F - 64.4 °F 100% 30.13 in 3.0 mi Calm Calm - N/A   Clear
6:56 AM 63.9 °F - 63.9 °F 100% 30.17 in 4.0 mi Calm Calm - N/A   Clear
7:56 AM 70.0 °F - 68.9 °F 96% 30.18 in 10.0 mi Calm Calm - N/A   Clear
8:56 AM 77.9 °F - 68.0 °F 71% 30.18 in 10.0 mi Calm Calm - N/A   Clear
9:56 AM 82.9 °F 85.0 °F 65.8 °F 56% 30.18 in 10.0 mi SW 8.1 mph - N/A   Clear
10:56 AM 86.0 °F 88.2 °F 65.8 °F 51% 30.17 in 10.0 mi WSW 8.1 mph - N/A   Clear
11:56 AM 86.0 °F 87.6 °F 64.9 °F 49% 30.16 in 10.0 mi Calm Calm - N/A   Clear
12:56 PM 88.0 °F 90.3 °F 65.8 °F 48% 30.13 in 10.0 mi Variable 4.6 mph - N/A   Clear
1:56 PM 88.9 °F 91.0 °F 65.8 °F 46% 30.10 in 10.0 mi Variable 4.6 mph - N/A   Clear
2:56 PM 88.9 °F 90.7 °F 64.9 °F 45% 30.06 in 10.0 mi Calm Calm - N/A   Clear
3:56 PM 90.9 °F 92.7 °F 64.9 °F 42% 30.04 in 10.0 mi SW 5.8 mph - N/A   Clear
4:56 PM 90.0 °F 92.4 °F 65.8 °F 45% 30.03 in 10.0 mi Variable 5.8 mph - N/A   Clear
5:56 PM 88.0 °F 90.3 °F 65.8 °F 48% 30.02 in 10.0 mi Calm Calm - N/A   Clear
6:56 PM 79.0 °F - 70.9 °F 76% 30.03 in 10.0 mi Calm Calm - N/A   Clear
7:56 PM 77.9 °F - 70.9 °F 79% 30.05 in 10.0 mi Calm Calm - N/A   Partly Cloudy
8:15 PM 75.2 °F - 71.6 °F 89% 30.03 in 2.5 mi NNW 8.1 mph - 0.02 in Rain Heavy Rain
8:20 PM 73.4 °F - 71.6 °F 94% 30.03 in 1.2 mi Variable 5.8 mph - 0.07 in Rain Heavy Rain
8:24 PM 73.4 °F - 71.6 °F 94% 30.03 in 1.5 mi NNW 4.6 mph - 0.09 in Rain Heavy Rain
8:30 PM 73.4 °F - 71.6 °F 94% 30.03 in 3.0 mi NNE 6.9 mph - 0.09 in Rain Light Rain
8:40 PM 73.4 °F - 71.6 °F 94% 30.02 in 9.0 mi Calm Calm - 0.09 in Rain Light Rain
8:56 PM 72.0 °F - 72.0 °F 100% 30.06 in 4.0 mi Calm Calm - 0.09 in   Partly Cloudy
9:26 PM 71.6 °F - 71.6 °F 100% 30.03 in 2.5 mi Calm Calm - 0.00 in   Clear
9:33 PM 71.6 °F - 71.6 °F 100% 30.03 in 6.0 mi Calm Calm - 0.00 in   Clear
9:56 PM 72.0 °F - 72.0 °F 100% 30.06 in 5.0 mi East 3.5 mph - 0.00 in   Clear
10:56 PM 70.9 °F - 70.9 °F 100% 30.06 in 6.0 mi Calm Calm - N/A   Clear
11:56 PM 70.0 °F - 70.0 °F 100% 30.04 in 1.5 mi Calm Calm - N/A   Clear